Year,Month,Day,Hour,Minute,Value (Times are PST for temperature in C)
2013,04,26,00,00,8.90
2013,04,26,00,01,9.00
2013,04,26,00,02,9.00
2013,04,26,00,03,9.10
2013,04,26,00,04,9.10
2013,04,26,00,05,9.10
2013,04,26,00,06,9.10
2013,04,26,00,07,9.10
2013,04,26,00,08,9.10
2013,04,26,00,09,9.10
2013,04,26,00,10,9.10
2013,04,26,00,11,9.10
2013,04,26,00,12,9.10
2013,04,26,00,13,9.20
2013,04,26,00,14,9.20
2013,04,26,00,15,9.20
2013,04,26,00,16,9.20
2013,04,26,00,17,9.10
2013,04,26,00,18,9.20
2013,04,26,00,19,9.20
2013,04,26,00,20,9.10
2013,04,26,00,21,9.10
2013,04,26,00,22,9.10
2013,04,26,00,23,9.10
2013,04,26,00,24,9.10
2013,04,26,00,25,9.10
2013,04,26,00,26,9.10
2013,04,26,00,27,9.10
2013,04,26,00,28,9.10
2013,04,26,00,29,9.10
2013,04,26,00,30,9.00
2013,04,26,00,31,9.00
2013,04,26,00,32,9.00
2013,04,26,00,33,9.00
2013,04,26,00,34,9.00
2013,04,26,00,35,9.00
2013,04,26,00,36,9.00
2013,04,26,00,37,9.00
2013,04,26,00,38,9.00
2013,04,26,00,39,9.00
2013,04,26,00,40,9.00
2013,04,26,00,41,8.90
2013,04,26,00,42,8.90
2013,04,26,00,43,8.90
2013,04,26,00,44,8.90
2013,04,26,00,45,8.90
2013,04,26,00,46,8.80
2013,04,26,00,47,8.80
2013,04,26,00,48,8.80
2013,04,26,00,49,8.80
2013,04,26,00,50,8.70
2013,04,26,00,51,8.70
2013,04,26,00,52,8.70
2013,04,26,00,53,8.70
2013,04,26,00,54,8.70
2013,04,26,00,55,8.70
2013,04,26,00,56,8.60
2013,04,26,00,57,8.60
2013,04,26,00,58,8.60
2013,04,26,00,59,8.60
2013,04,26,01,00,8.60
2013,04,26,01,01,8.50
2013,04,26,01,02,8.50
2013,04,26,01,03,8.50
2013,04,26,01,04,8.50
2013,04,26,01,05,8.50
2013,04,26,01,06,8.40
2013,04,26,01,07,8.40
2013,04,26,01,08,8.40
2013,04,26,01,09,8.40
2013,04,26,01,10,8.40
2013,04,26,01,11,8.40
2013,04,26,01,12,8.40
2013,04,26,01,13,8.30
2013,04,26,01,14,8.30
2013,04,26,01,15,8.30
2013,04,26,01,16,8.30
2013,04,26,01,17,8.20
2013,04,26,01,18,8.20
2013,04,26,01,19,8.20
2013,04,26,01,20,8.20
2013,04,26,01,21,8.20
2013,04,26,01,22,8.10
2013,04,26,01,23,8.10
2013,04,26,01,24,8.10
2013,04,26,01,25,8.10
2013,04,26,01,26,8.00
2013,04,26,01,27,8.00
2013,04,26,01,28,8.00
2013,04,26,01,29,7.90
2013,04,26,01,30,7.90
2013,04,26,01,31,7.90
2013,04,26,01,32,7.90
2013,04,26,01,33,7.90
2013,04,26,01,34,7.90
2013,04,26,01,35,7.90
2013,04,26,01,36,7.90
2013,04,26,01,37,7.90
2013,04,26,01,38,7.90
2013,04,26,01,39,7.80
2013,04,26,01,40,7.80
2013,04,26,01,41,7.80
2013,04,26,01,42,7.80
2013,04,26,01,43,7.80
2013,04,26,01,44,7.80
2013,04,26,01,45,7.80
2013,04,26,01,46,7.80
2013,04,26,01,47,7.80
2013,04,26,01,48,7.70
2013,04,26,01,49,7.70
2013,04,26,01,50,7.70
2013,04,26,01,51,7.70
2013,04,26,01,52,7.70
2013,04,26,01,53,7.70
2013,04,26,01,54,7.70
2013,04,26,01,55,7.60
2013,04,26,01,56,7.60
2013,04,26,01,57,7.60
2013,04,26,01,58,7.60
2013,04,26,01,59,7.60
2013,04,26,02,00,7.60
2013,04,26,02,01,7.60
2013,04,26,02,02,7.60
2013,04,26,02,03,7.50
2013,04,26,02,04,7.50
2013,04,26,02,05,7.40
2013,04,26,02,06,7.40
2013,04,26,02,07,7.40
2013,04,26,02,08,7.40
2013,04,26,02,09,7.30
2013,04,26,02,10,7.30
2013,04,26,02,11,7.30
2013,04,26,02,12,7.30
2013,04,26,02,13,7.30
2013,04,26,02,14,7.30
2013,04,26,02,15,7.30
2013,04,26,02,16,7.30
2013,04,26,02,17,7.30
2013,04,26,02,18,7.20
2013,04,26,02,19,7.20
2013,04,26,02,20,7.20
2013,04,26,02,21,7.20
2013,04,26,02,22,7.20
2013,04,26,02,23,7.20
2013,04,26,02,24,7.20
2013,04,26,02,25,7.20
2013,04,26,02,26,7.20
2013,04,26,02,27,7.20
2013,04,26,02,28,7.20
2013,04,26,02,29,7.10
2013,04,26,02,30,7.10
2013,04,26,02,31,7.10
2013,04,26,02,32,7.10
2013,04,26,02,33,7.10
2013,04,26,02,34,7.00
2013,04,26,02,35,7.00
2013,04,26,02,36,7.00
2013,04,26,02,37,7.00
2013,04,26,02,38,7.00
2013,04,26,02,39,7.00
2013,04,26,02,40,7.10
2013,04,26,02,41,7.10
2013,04,26,02,42,7.10
2013,04,26,02,43,7.20
2013,04,26,02,44,7.20
2013,04,26,02,45,7.20
2013,04,26,02,46,7.20
2013,04,26,02,47,7.20
2013,04,26,02,48,7.20
2013,04,26,02,49,7.20
2013,04,26,02,50,7.20
2013,04,26,02,51,7.20
2013,04,26,02,52,7.10
2013,04,26,02,53,7.10
2013,04,26,02,54,7.10
2013,04,26,02,55,7.10
2013,04,26,02,56,7.10
2013,04,26,02,57,7.10
2013,04,26,02,58,7.10
2013,04,26,02,59,7.10
2013,04,26,03,00,7.10
2013,04,26,03,01,7.10
2013,04,26,03,02,7.10
2013,04,26,03,03,7.10
2013,04,26,03,04,7.10
2013,04,26,03,05,7.10
2013,04,26,03,06,7.10
2013,04,26,03,07,7.10
2013,04,26,03,08,7.10
2013,04,26,03,09,7.10
2013,04,26,03,10,7.10
2013,04,26,03,11,7.10
2013,04,26,03,12,7.10
2013,04,26,03,13,7.10
2013,04,26,03,14,7.10
2013,04,26,03,15,7.10
2013,04,26,03,16,7.10
2013,04,26,03,17,7.10
2013,04,26,03,18,7.10
2013,04,26,03,19,7.00
2013,04,26,03,20,7.00
2013,04,26,03,21,7.00
2013,04,26,03,22,7.00
2013,04,26,03,23,7.00
2013,04,26,03,24,7.00
2013,04,26,03,25,7.00
2013,04,26,03,26,6.90
2013,04,26,03,27,6.90
2013,04,26,03,28,6.90
2013,04,26,03,29,7.00
2013,04,26,03,30,7.00
2013,04,26,03,31,7.00
2013,04,26,03,32,7.10
2013,04,26,03,33,7.10
2013,04,26,03,34,7.10
2013,04,26,03,35,7.00
2013,04,26,03,36,7.00
2013,04,26,03,37,7.00
2013,04,26,03,38,7.00
2013,04,26,03,39,6.90
2013,04,26,03,40,6.90
2013,04,26,03,41,6.90
2013,04,26,03,42,6.90
2013,04,26,03,43,6.90
2013,04,26,03,44,6.90
2013,04,26,03,45,6.80
2013,04,26,03,46,6.80
2013,04,26,03,47,6.90
2013,04,26,03,48,6.90
2013,04,26,03,49,6.90
2013,04,26,03,50,6.90
2013,04,26,03,51,6.90
2013,04,26,03,52,6.90
2013,04,26,03,53,6.90
2013,04,26,03,54,6.90
2013,04,26,03,55,6.90
2013,04,26,03,56,6.90
2013,04,26,03,57,6.90
2013,04,26,03,58,6.90
2013,04,26,03,59,6.90
2013,04,26,04,00,6.90
2013,04,26,04,01,6.90
2013,04,26,04,02,6.90
2013,04,26,04,03,6.90
2013,04,26,04,04,7.00
2013,04,26,04,05,7.00
2013,04,26,04,06,7.10
2013,04,26,04,07,7.10
2013,04,26,04,08,7.10
2013,04,26,04,09,7.10
2013,04,26,04,10,7.10
2013,04,26,04,11,7.10
2013,04,26,04,12,7.10
2013,04,26,04,13,7.10
2013,04,26,04,14,7.10
2013,04,26,04,15,7.10
2013,04,26,04,16,7.10
2013,04,26,04,17,7.10
2013,04,26,04,18,7.10
2013,04,26,04,19,7.10
2013,04,26,04,20,7.10
2013,04,26,04,21,7.10
2013,04,26,04,22,7.10
2013,04,26,04,23,7.10
2013,04,26,04,24,7.20
2013,04,26,04,25,7.20
2013,04,26,04,26,7.20
2013,04,26,04,27,7.20
2013,04,26,04,28,7.20
2013,04,26,04,29,7.30
2013,04,26,04,30,7.30
2013,04,26,04,31,7.30
2013,04,26,04,32,7.30
2013,04,26,04,33,7.30
2013,04,26,04,34,7.30
2013,04,26,04,35,7.40
2013,04,26,04,36,7.40
2013,04,26,04,37,7.40
2013,04,26,04,38,7.40
2013,04,26,04,39,7.40
2013,04,26,04,40,7.40
2013,04,26,04,41,7.30
2013,04,26,04,42,7.40
2013,04,26,04,43,7.30
2013,04,26,04,44,7.40
2013,04,26,04,45,7.40
2013,04,26,04,46,7.40
2013,04,26,04,47,7.40
2013,04,26,04,48,7.40
2013,04,26,04,49,7.40
2013,04,26,04,50,7.40
2013,04,26,04,51,7.40
2013,04,26,04,52,7.40
2013,04,26,04,53,7.40
2013,04,26,04,54,7.40
2013,04,26,04,55,7.30
2013,04,26,04,56,7.30
2013,04,26,04,57,7.30
2013,04,26,04,58,7.30
2013,04,26,04,59,7.30
2013,04,26,05,00,7.30
2013,04,26,05,01,7.20
2013,04,26,05,02,7.20
2013,04,26,05,03,7.20
2013,04,26,05,04,7.20
2013,04,26,05,05,7.20
2013,04,26,05,06,7.20
2013,04,26,05,07,7.20
2013,04,26,05,08,7.20
2013,04,26,05,09,7.20
2013,04,26,05,10,7.20
2013,04,26,05,11,7.20
2013,04,26,05,12,7.20
2013,04,26,05,13,7.20
2013,04,26,05,14,7.30
2013,04,26,05,15,7.40
2013,04,26,05,16,7.50
2013,04,26,05,17,7.60
2013,04,26,05,18,7.60
2013,04,26,05,19,7.50
2013,04,26,05,20,7.50
2013,04,26,05,21,7.50
2013,04,26,05,22,7.50
2013,04,26,05,23,7.50
2013,04,26,05,24,7.50
2013,04,26,05,25,7.50
2013,04,26,05,26,7.50
2013,04,26,05,27,7.50
2013,04,26,05,28,7.50
2013,04,26,05,29,7.40
2013,04,26,05,30,7.40
2013,04,26,05,31,7.40
2013,04,26,05,32,7.40
2013,04,26,05,33,7.40
2013,04,26,05,34,7.40
2013,04,26,05,35,7.40
2013,04,26,05,36,7.40
2013,04,26,05,37,7.30
2013,04,26,05,38,7.30
2013,04,26,05,39,7.30
2013,04,26,05,40,7.30
2013,04,26,05,41,7.30
2013,04,26,05,42,7.30
2013,04,26,05,43,7.30
2013,04,26,05,44,7.30
2013,04,26,05,45,7.30
2013,04,26,05,46,7.30
2013,04,26,05,47,7.20
2013,04,26,05,48,7.20
2013,04,26,05,49,7.20
2013,04,26,05,50,7.20
2013,04,26,05,51,7.20
2013,04,26,05,52,7.20
2013,04,26,05,53,7.20
2013,04,26,05,54,7.20
2013,04,26,05,55,7.10
2013,04,26,05,56,7.10
2013,04,26,05,57,7.10
2013,04,26,05,58,7.10
2013,04,26,05,59,7.10
2013,04,26,06,00,7.10
2013,04,26,06,01,7.10
2013,04,26,06,02,7.10
2013,04,26,06,03,7.00
2013,04,26,06,04,7.00
2013,04,26,06,05,7.00
2013,04,26,06,06,7.00
2013,04,26,06,07,7.00
2013,04,26,06,08,7.00
2013,04,26,06,09,7.00
2013,04,26,06,10,7.00
2013,04,26,06,11,7.00
2013,04,26,06,12,6.90
2013,04,26,06,13,6.90
2013,04,26,06,14,6.90
2013,04,26,06,15,6.90
2013,04,26,06,16,6.90
2013,04,26,06,17,6.90
2013,04,26,06,18,6.90
2013,04,26,06,19,6.90
2013,04,26,06,20,6.90
2013,04,26,06,21,6.90
2013,04,26,06,22,6.90
2013,04,26,06,23,6.90
2013,04,26,06,24,6.80
2013,04,26,06,25,6.80
2013,04,26,06,26,6.80
2013,04,26,06,27,6.80
2013,04,26,06,28,6.80
2013,04,26,06,29,6.80
2013,04,26,06,30,6.80
2013,04,26,06,31,6.80
2013,04,26,06,32,6.70
2013,04,26,06,33,6.70
2013,04,26,06,34,6.70
2013,04,26,06,35,6.70
2013,04,26,06,36,6.70
2013,04,26,06,37,6.70
2013,04,26,06,38,6.70
2013,04,26,06,39,6.70
2013,04,26,06,40,6.70
2013,04,26,06,41,6.70
2013,04,26,06,42,6.70
2013,04,26,06,43,6.70
2013,04,26,06,44,6.70
2013,04,26,06,45,6.70
2013,04,26,06,46,6.70
2013,04,26,06,47,6.70
2013,04,26,06,48,6.70
2013,04,26,06,49,6.70
2013,04,26,06,50,6.70
2013,04,26,06,51,6.70
2013,04,26,06,52,6.70
2013,04,26,06,53,6.70
2013,04,26,06,54,6.70
2013,04,26,06,55,6.70
2013,04,26,06,56,6.70
2013,04,26,06,57,6.70
2013,04,26,06,58,6.70
2013,04,26,06,59,6.70
2013,04,26,07,00,6.70
2013,04,26,07,01,6.70
2013,04,26,07,02,6.80
2013,04,26,07,03,6.80
2013,04,26,07,04,6.90
2013,04,26,07,05,6.90
2013,04,26,07,06,7.00
2013,04,26,07,07,7.00
2013,04,26,07,08,7.10
2013,04,26,07,09,7.10
2013,04,26,07,10,7.20
2013,04,26,07,11,7.20
2013,04,26,07,12,7.30
2013,04,26,07,13,7.30
2013,04,26,07,14,7.40
2013,04,26,07,15,7.50
2013,04,26,07,16,7.50
2013,04,26,07,17,7.60
2013,04,26,07,18,7.60
2013,04,26,07,19,7.70
2013,04,26,07,20,7.70
2013,04,26,07,21,7.70
2013,04,26,07,22,7.80
2013,04,26,07,23,7.80
2013,04,26,07,24,7.90
2013,04,26,07,25,8.00
2013,04,26,07,26,8.10
2013,04,26,07,27,8.20
2013,04,26,07,28,8.30
2013,04,26,07,29,8.30
2013,04,26,07,30,8.40
2013,04,26,07,31,8.50
2013,04,26,07,32,8.50
2013,04,26,07,33,8.60
2013,04,26,07,34,8.70
2013,04,26,07,35,8.80
2013,04,26,07,36,8.80
2013,04,26,07,37,8.90
2013,04,26,07,38,8.90
2013,04,26,07,39,9.00
2013,04,26,07,40,9.10
2013,04,26,07,41,9.10
2013,04,26,07,42,9.20
2013,04,26,07,43,9.30
2013,04,26,07,44,9.30
2013,04,26,07,45,9.30
2013,04,26,07,46,9.40
2013,04,26,07,47,9.40
2013,04,26,07,48,9.50
2013,04,26,07,49,9.50
2013,04,26,07,50,9.60
2013,04,26,07,51,9.70
2013,04,26,07,52,9.70
2013,04,26,07,53,9.80
2013,04,26,07,54,9.90
2013,04,26,07,55,9.90
2013,04,26,07,56,10.00
2013,04,26,07,57,10.00
2013,04,26,07,58,10.10
2013,04,26,07,59,10.10
2013,04,26,08,00,10.20
2013,04,26,08,01,10.20
2013,04,26,08,02,10.30
2013,04,26,08,03,10.40
2013,04,26,08,04,10.40
2013,04,26,08,05,10.50
2013,04,26,08,06,10.60
2013,04,26,08,07,10.60
2013,04,26,08,08,10.70
2013,04,26,08,09,10.80
2013,04,26,08,10,10.80
2013,04,26,08,11,10.90
2013,04,26,08,12,11.00
2013,04,26,08,13,11.00
2013,04,26,08,14,11.00
2013,04,26,08,15,11.00
2013,04,26,08,16,11.00
2013,04,26,08,17,11.00
2013,04,26,08,18,11.10
2013,04,26,08,19,11.10
2013,04,26,08,20,11.20
2013,04,26,08,21,11.20
2013,04,26,08,22,11.30
2013,04,26,08,23,11.40
2013,04,26,08,24,11.40
2013,04,26,08,25,11.50
2013,04,26,08,26,11.60
2013,04,26,08,27,11.60
2013,04,26,08,28,11.70
2013,04,26,08,29,11.80
2013,04,26,08,30,11.80
2013,04,26,08,31,11.90
2013,04,26,08,32,12.00
2013,04,26,08,33,12.10
2013,04,26,08,34,12.20
2013,04,26,08,35,12.20
2013,04,26,08,36,12.30
2013,04,26,08,37,12.30
2013,04,26,08,38,12.40
2013,04,26,08,39,12.40
2013,04,26,08,40,12.50
2013,04,26,08,41,12.50
2013,04,26,08,42,12.60
2013,04,26,08,43,12.70
2013,04,26,08,44,12.80
2013,04,26,08,45,12.80
2013,04,26,08,46,13.00
2013,04,26,08,47,13.10
2013,04,26,08,48,13.20
2013,04,26,08,49,13.30
2013,04,26,08,50,13.40
2013,04,26,08,51,13.50
2013,04,26,08,52,13.50
2013,04,26,08,53,13.60
2013,04,26,08,54,13.60
2013,04,26,08,55,13.70
2013,04,26,08,56,13.70
2013,04,26,08,57,13.70
2013,04,26,08,58,13.80
2013,04,26,08,59,13.80
2013,04,26,09,00,13.80
2013,04,26,09,01,13.90
2013,04,26,09,02,14.00
2013,04,26,09,03,14.10
2013,04,26,09,04,14.20
2013,04,26,09,05,14.20
2013,04,26,09,06,14.20
2013,04,26,09,07,14.20
2013,04,26,09,08,14.30
2013,04,26,09,09,14.30
2013,04,26,09,10,14.30
2013,04,26,09,11,14.40
2013,04,26,09,12,14.40
2013,04,26,09,13,14.50
2013,04,26,09,14,14.60
2013,04,26,09,15,14.70
2013,04,26,09,16,14.80
2013,04,26,09,17,14.80
2013,04,26,09,18,14.80
2013,04,26,09,19,14.90
2013,04,26,09,20,15.00
2013,04,26,09,21,15.10
2013,04,26,09,22,15.10
2013,04,26,09,23,15.20
2013,04,26,09,24,15.30
2013,04,26,09,25,15.30
2013,04,26,09,26,15.40
2013,04,26,09,27,15.50
2013,04,26,09,28,15.60
2013,04,26,09,29,15.70
2013,04,26,09,30,15.80
2013,04,26,09,31,15.80
2013,04,26,09,32,15.80
2013,04,26,09,33,15.80
2013,04,26,09,34,15.80
2013,04,26,09,35,15.80
2013,04,26,09,36,15.90
2013,04,26,09,37,16.00
2013,04,26,09,38,16.00
2013,04,26,09,39,16.10
2013,04,26,09,40,16.20
2013,04,26,09,41,16.30
2013,04,26,09,42,16.40
2013,04,26,09,43,16.40
2013,04,26,09,44,16.50
2013,04,26,09,45,16.50
2013,04,26,09,46,16.60
2013,04,26,09,47,16.70
2013,04,26,09,48,16.70
2013,04,26,09,49,16.70
2013,04,26,09,50,16.70
2013,04,26,09,51,16.80
2013,04,26,09,52,16.80
2013,04,26,09,53,16.80
2013,04,26,09,54,16.90
2013,04,26,09,55,16.90
2013,04,26,09,56,16.90
2013,04,26,09,57,17.00
2013,04,26,09,58,17.10
2013,04,26,09,59,17.10
2013,04,26,10,00,17.10
2013,04,26,10,01,17.10
2013,04,26,10,02,17.10
2013,04,26,10,03,17.10
2013,04,26,10,04,17.10
2013,04,26,10,05,17.00
2013,04,26,10,06,17.00
2013,04,26,10,07,16.90
2013,04,26,10,08,16.90
2013,04,26,10,09,16.90
2013,04,26,10,10,17.00
2013,04,26,10,11,17.10
2013,04,26,10,12,17.10
2013,04,26,10,13,17.20
2013,04,26,10,14,17.20
2013,04,26,10,15,17.20
2013,04,26,10,16,17.20
2013,04,26,10,17,17.20
2013,04,26,10,18,17.20
2013,04,26,10,19,17.20
2013,04,26,10,20,17.20
2013,04,26,10,21,17.30
2013,04,26,10,22,17.20
2013,04,26,10,23,17.20
2013,04,26,10,24,17.20
2013,04,26,10,25,17.10
2013,04,26,10,26,17.00
2013,04,26,10,27,17.00
2013,04,26,10,28,16.90
2013,04,26,10,29,16.90
2013,04,26,10,30,16.80
2013,04,26,10,31,16.80
2013,04,26,10,32,16.80
2013,04,26,10,33,16.80
2013,04,26,10,34,16.90
2013,04,26,10,35,16.90
2013,04,26,10,36,16.90
2013,04,26,10,37,16.90
2013,04,26,10,38,16.80
2013,04,26,10,39,16.80
2013,04,26,10,40,16.80
2013,04,26,10,41,16.80
2013,04,26,10,42,16.90
2013,04,26,10,43,16.90
2013,04,26,10,44,16.80
2013,04,26,10,45,16.80
2013,04,26,10,46,16.70
2013,04,26,10,47,16.70
2013,04,26,10,48,16.70
2013,04,26,10,49,16.70
2013,04,26,10,50,16.70
2013,04,26,10,51,16.80
2013,04,26,10,52,16.80
2013,04,26,10,53,16.80
2013,04,26,10,54,16.80
2013,04,26,10,55,16.80
2013,04,26,10,56,16.80
2013,04,26,10,57,16.80
2013,04,26,10,58,16.80
2013,04,26,10,59,16.80
2013,04,26,11,00,16.70
2013,04,26,11,01,16.70
2013,04,26,11,02,16.70
2013,04,26,11,03,16.70
2013,04,26,11,04,16.60
2013,04,26,11,05,16.60
2013,04,26,11,06,16.50
2013,04,26,11,07,16.50
2013,04,26,11,08,16.60
2013,04,26,11,09,16.60
2013,04,26,11,10,16.60
2013,04,26,11,11,16.70
2013,04,26,11,12,16.70
2013,04,26,11,13,16.80
2013,04,26,11,14,16.80
2013,04,26,11,15,16.80
2013,04,26,11,16,16.90
2013,04,26,11,17,17.00
2013,04,26,11,18,17.10
2013,04,26,11,19,17.20
2013,04,26,11,20,17.30
2013,04,26,11,21,17.20
2013,04,26,11,22,17.10
2013,04,26,11,23,17.10
2013,04,26,11,24,17.00
2013,04,26,11,25,17.00
2013,04,26,11,26,17.00
2013,04,26,11,27,17.00
2013,04,26,11,28,17.10
2013,04,26,11,29,17.20
2013,04,26,11,30,17.30
2013,04,26,11,31,17.50
2013,04,26,11,32,17.60
2013,04,26,11,33,17.70
2013,04,26,11,34,17.70
2013,04,26,11,35,17.70
2013,04,26,11,36,17.70
2013,04,26,11,37,17.60
2013,04,26,11,38,17.60
2013,04,26,11,39,17.60
2013,04,26,11,40,17.50
2013,04,26,11,41,17.50
2013,04,26,11,42,17.40
2013,04,26,11,43,17.30
2013,04,26,11,44,17.20
2013,04,26,11,45,17.20
2013,04,26,11,46,17.20
2013,04,26,11,47,17.20
2013,04,26,11,48,17.10
2013,04,26,11,49,17.10
2013,04,26,11,50,17.00
2013,04,26,11,51,17.00
2013,04,26,11,52,16.90
2013,04,26,11,53,16.90
2013,04,26,11,54,16.90
2013,04,26,11,55,16.90
2013,04,26,11,56,17.00
2013,04,26,11,57,17.00
2013,04,26,11,58,17.10
2013,04,26,11,59,17.10
2013,04,26,12,00,17.10
2013,04,26,12,01,17.20
2013,04,26,12,02,17.20
2013,04,26,12,03,17.20
2013,04,26,12,04,17.20
2013,04,26,12,05,17.20
2013,04,26,12,06,17.20
2013,04,26,12,07,17.20
2013,04,26,12,08,17.20
2013,04,26,12,09,17.10
2013,04,26,12,10,17.10
2013,04,26,12,11,17.10
2013,04,26,12,12,17.10
2013,04,26,12,13,17.00
2013,04,26,12,14,16.90
2013,04,26,12,15,16.90
2013,04,26,12,16,16.90
2013,04,26,12,17,16.80
2013,04,26,12,18,16.70
2013,04,26,12,19,16.70
2013,04,26,12,20,16.70
2013,04,26,12,21,16.70
2013,04,26,12,22,16.70
2013,04,26,12,23,16.70
2013,04,26,12,24,16.70
2013,04,26,12,25,16.70
2013,04,26,12,26,16.70
2013,04,26,12,27,16.80
2013,04,26,12,28,16.80
2013,04,26,12,29,16.90
2013,04,26,12,30,17.00
2013,04,26,12,31,17.00
2013,04,26,12,32,17.10
2013,04,26,12,33,17.20
2013,04,26,12,34,17.20
2013,04,26,12,35,17.10
2013,04,26,12,36,17.00
2013,04,26,12,37,16.90
2013,04,26,12,38,16.90
2013,04,26,12,39,16.90
2013,04,26,12,40,16.90
2013,04,26,12,41,16.90
2013,04,26,12,42,16.90
2013,04,26,12,43,16.90
2013,04,26,12,44,16.90
2013,04,26,12,45,16.90
2013,04,26,12,46,16.90
2013,04,26,12,47,16.90
2013,04,26,12,48,16.90
2013,04,26,12,49,16.80
2013,04,26,12,50,16.80
2013,04,26,12,51,16.80
2013,04,26,12,52,16.90
2013,04,26,12,53,17.00
2013,04,26,12,54,17.10
2013,04,26,12,55,17.30
2013,04,26,12,56,17.40
2013,04,26,12,57,17.50
2013,04,26,12,58,17.60
2013,04,26,12,59,17.70
2013,04,26,13,00,17.80
2013,04,26,13,01,18.00
2013,04,26,13,02,18.10
2013,04,26,13,03,18.20
2013,04,26,13,04,18.30
2013,04,26,13,05,18.40
2013,04,26,13,06,18.40
2013,04,26,13,07,18.40
2013,04,26,13,08,18.50
2013,04,26,13,09,18.50
2013,04,26,13,10,18.50
2013,04,26,13,11,18.60
2013,04,26,13,12,18.70
2013,04,26,13,13,18.70
2013,04,26,13,14,18.80
2013,04,26,13,15,18.80
2013,04,26,13,16,18.80
2013,04,26,13,17,18.80
2013,04,26,13,18,18.90
2013,04,26,13,19,18.90
2013,04,26,13,20,19.00
2013,04,26,13,21,19.00
2013,04,26,13,22,19.00
2013,04,26,13,23,18.90
2013,04,26,13,24,18.90
2013,04,26,13,25,18.90
2013,04,26,13,26,18.80
2013,04,26,13,27,18.80
2013,04,26,13,28,18.80
2013,04,26,13,29,18.80
2013,04,26,13,30,18.90
2013,04,26,13,31,19.00
2013,04,26,13,32,19.10
2013,04,26,13,33,19.20
2013,04,26,13,34,19.20
2013,04,26,13,35,19.20
2013,04,26,13,36,19.20
2013,04,26,13,37,19.20
2013,04,26,13,38,19.30
2013,04,26,13,39,19.40
2013,04,26,13,40,19.30
2013,04,26,13,41,19.30
2013,04,26,13,42,19.30
2013,04,26,13,43,19.30
2013,04,26,13,44,19.30
2013,04,26,13,45,19.30
2013,04,26,13,46,19.30
2013,04,26,13,47,19.30
2013,04,26,13,48,19.20
2013,04,26,13,49,19.20
2013,04,26,13,50,19.20
2013,04,26,13,51,19.20
2013,04,26,13,52,19.30
2013,04,26,13,53,19.40
2013,04,26,13,54,19.50
2013,04,26,13,55,19.60
2013,04,26,13,56,19.60
2013,04,26,13,57,19.70
2013,04,26,13,58,19.70
2013,04,26,13,59,19.70
2013,04,26,14,00,19.70
2013,04,26,14,01,19.80
2013,04,26,14,02,19.80
2013,04,26,14,03,19.80
2013,04,26,14,04,19.80
2013,04,26,14,05,19.70
2013,04,26,14,06,19.70
2013,04,26,14,07,19.60
2013,04,26,14,08,19.50
2013,04,26,14,09,19.50
2013,04,26,14,10,19.40
2013,04,26,14,11,19.40
2013,04,26,14,12,19.30
2013,04,26,14,13,19.30
2013,04,26,14,14,19.30
2013,04,26,14,15,19.30
2013,04,26,14,16,19.30
2013,04,26,14,17,19.40
2013,04,26,14,18,19.50
2013,04,26,14,19,19.60
2013,04,26,14,20,19.70
2013,04,26,14,21,19.70
2013,04,26,14,22,19.70
2013,04,26,14,23,19.70
2013,04,26,14,24,19.70
2013,04,26,14,25,19.70
2013,04,26,14,26,19.80
2013,04,26,14,27,19.80
2013,04,26,14,28,19.70
2013,04,26,14,29,19.70
2013,04,26,14,30,19.70
2013,04,26,14,31,19.60
2013,04,26,14,32,19.60
2013,04,26,14,33,19.60
2013,04,26,14,34,19.50
2013,04,26,14,35,19.50
2013,04,26,14,36,19.40
2013,04,26,14,37,19.40
2013,04,26,14,38,19.50
2013,04,26,14,39,19.50
2013,04,26,14,40,19.50
2013,04,26,14,41,19.50
2013,04,26,14,42,19.60
2013,04,26,14,43,19.60
2013,04,26,14,44,19.60
2013,04,26,14,45,19.60
2013,04,26,14,46,19.60
2013,04,26,14,47,19.60
2013,04,26,14,48,19.60
2013,04,26,14,49,19.60
2013,04,26,14,50,19.70
2013,04,26,14,51,19.70
2013,04,26,14,52,19.80
2013,04,26,14,53,19.80
2013,04,26,14,54,19.80
2013,04,26,14,55,19.70
2013,04,26,14,56,19.70
2013,04,26,14,57,19.70
2013,04,26,14,58,19.80
2013,04,26,14,59,19.80
2013,04,26,15,00,19.90
2013,04,26,15,01,19.90
2013,04,26,15,02,20.00
2013,04,26,15,03,20.00
2013,04,26,15,04,20.10
2013,04,26,15,05,20.10
2013,04,26,15,06,20.10
2013,04,26,15,07,20.10
2013,04,26,15,08,20.10
2013,04,26,15,09,20.10
2013,04,26,15,10,20.10
2013,04,26,15,11,20.10
2013,04,26,15,12,20.10
2013,04,26,15,13,20.10
2013,04,26,15,14,20.10
2013,04,26,15,15,20.10
2013,04,26,15,16,20.20
2013,04,26,15,17,20.20
2013,04,26,15,18,20.20
2013,04,26,15,19,20.30
2013,04,26,15,20,20.30
2013,04,26,15,21,20.40
2013,04,26,15,22,20.40
2013,04,26,15,23,20.40
2013,04,26,15,24,20.40
2013,04,26,15,25,20.40
2013,04,26,15,26,20.40
2013,04,26,15,27,20.40
2013,04,26,15,28,20.40
2013,04,26,15,29,20.40
2013,04,26,15,30,20.40
2013,04,26,15,31,20.50
2013,04,26,15,32,20.50
2013,04,26,15,33,20.50
2013,04,26,15,34,20.60
2013,04,26,15,35,20.60
2013,04,26,15,36,20.60
2013,04,26,15,37,20.60
2013,04,26,15,38,20.60
2013,04,26,15,39,20.60
2013,04,26,15,40,20.70
2013,04,26,15,41,20.70
2013,04,26,15,42,20.70
2013,04,26,15,43,20.80
2013,04,26,15,44,20.70
2013,04,26,15,45,20.70
2013,04,26,15,46,20.80
2013,04,26,15,47,20.80
2013,04,26,15,48,20.80
2013,04,26,15,49,20.80
2013,04,26,15,50,20.80
2013,04,26,15,51,20.80
2013,04,26,15,52,20.80
2013,04,26,15,53,20.80
2013,04,26,15,54,20.80
2013,04,26,15,55,20.80
2013,04,26,15,56,20.80
2013,04,26,15,57,20.80
2013,04,26,15,58,20.80
2013,04,26,15,59,20.80
2013,04,26,16,00,20.80
2013,04,26,16,01,20.70
2013,04,26,16,02,20.60
2013,04,26,16,03,20.60
2013,04,26,16,04,20.50
2013,04,26,16,05,20.40
2013,04,26,16,06,20.40
2013,04,26,16,07,20.40
2013,04,26,16,08,20.40
2013,04,26,16,09,20.40
2013,04,26,16,10,20.40
2013,04,26,16,11,20.40
2013,04,26,16,12,20.40
2013,04,26,16,13,20.40
2013,04,26,16,14,20.40
2013,04,26,16,15,20.40
2013,04,26,16,16,20.40
2013,04,26,16,17,20.40
2013,04,26,16,18,20.40
2013,04,26,16,19,20.40
2013,04,26,16,20,20.40
2013,04,26,16,21,20.30
2013,04,26,16,22,20.30
2013,04,26,16,23,20.30
2013,04,26,16,24,20.30
2013,04,26,16,25,20.20
2013,04,26,16,26,20.20
2013,04,26,16,27,20.20
2013,04,26,16,28,20.20
2013,04,26,16,29,20.20
2013,04,26,16,30,20.20
2013,04,26,16,31,20.20
2013,04,26,16,32,20.20
2013,04,26,16,33,20.10
2013,04,26,16,34,20.10
2013,04,26,16,35,20.10
2013,04,26,16,36,20.10
2013,04,26,16,37,20.10
2013,04,26,16,38,20.10
2013,04,26,16,39,20.10
2013,04,26,16,40,20.10
2013,04,26,16,41,20.10
2013,04,26,16,42,20.10
2013,04,26,16,43,20.00
2013,04,26,16,44,20.00
2013,04,26,16,45,20.00
2013,04,26,16,46,19.90
2013,04,26,16,47,19.90
2013,04,26,16,48,19.80
2013,04,26,16,49,19.80
2013,04,26,16,50,19.80
2013,04,26,16,51,19.80
2013,04,26,16,52,19.70
2013,04,26,16,53,19.70
2013,04,26,16,54,19.70
2013,04,26,16,55,19.70
2013,04,26,16,56,19.70
2013,04,26,16,57,19.60
2013,04,26,16,58,19.60
2013,04,26,16,59,19.50
2013,04,26,17,00,19.40
2013,04,26,17,01,19.40
2013,04,26,17,02,19.40
2013,04,26,17,03,19.30
2013,04,26,17,04,19.30
2013,04,26,17,05,19.30
2013,04,26,17,06,19.30
2013,04,26,17,07,19.20
2013,04,26,17,08,19.20
2013,04,26,17,09,19.20
2013,04,26,17,10,19.20
2013,04,26,17,11,19.20
2013,04,26,17,12,19.10
2013,04,26,17,13,19.10
2013,04,26,17,14,19.00
2013,04,26,17,15,19.00
2013,04,26,17,16,19.00
2013,04,26,17,17,18.90
2013,04,26,17,18,18.90
2013,04,26,17,19,18.80
2013,04,26,17,20,18.80
2013,04,26,17,21,18.80
2013,04,26,17,22,18.80
2013,04,26,17,23,18.80
2013,04,26,17,24,18.80
2013,04,26,17,25,18.80
2013,04,26,17,26,18.80
2013,04,26,17,27,18.70
2013,04,26,17,28,18.70
2013,04,26,17,29,18.70
2013,04,26,17,30,18.70
2013,04,26,17,31,18.70
2013,04,26,17,32,18.60
2013,04,26,17,33,18.60
2013,04,26,17,34,18.50
2013,04,26,17,35,18.50
2013,04,26,17,36,18.40
2013,04,26,17,37,18.40
2013,04,26,17,38,18.40
2013,04,26,17,39,18.40
2013,04,26,17,40,18.30